Location: Wingville
(42.9917°N, 90.4915°W)
Time: 21:21:22
(UTC+00:00)

LO-87 - Pass Details

Date: 29 June 2022
Orbit: 451 x 466 km, 97.4° (Epoch: 13 August)

Event Time Altitude Azimuth Distance (km) Brightness Sun altitude
Exits shadow 05:39:27 55° 341° (NNW) 561 ? -23.5°
Drops below altitude 10° 05:42:14 10° 347° (NNW) 1,619 ? -23.6°
Sets 05:44:18 0° 348° (NNW) 2,503 ? -23.6°
